Kodiak, AK

9:55 PM AKST on February 20, 2017 (GMT -0900)
Kodiak

Weather History for PADQ - December, 2012

Change the Weather History Date:

Monday, December 17, 2012

  Actual Average Record
Temperature  
Mean Temperature 26 °F 31 °F  
Max Temperature 35 °F 36 °F 48 °F (1984)
Min Temperature 16 °F 26 °F -2 °F (1997)
Degree Days  
Heating Degree Days 39 34  
Month to date heating degree days 610 573  
Since 1 July heating degree days 3535 3368  
Cooling Degree Days 0 0  
Month to date cooling degree days 0 0  
Year to date cooling degree days 0 1  
Moisture  
Dew Point 14 °F    
Average Humidity 0    
Maximum Humidity 0    
Minimum Humidity 0    
Precipitation  
Precipitation 0.02 in 0.29 in 1.95 in (1996)
Month to date precipitation 1.38 4.85  
Year to date precipitation 53.68 74.12  
Snow  
Snow 0.20 in 0.50 in 5.40 in (2015)
Month to date snowfall 2.8 8.1  
Since 1 July snowfall 10.7 15.6  
Snow Depth T in    
Sea Level Pressure  
Sea Level Pressure 29.55 in    
Wind  
Wind Speed 11 mph (WSW)    
Max Wind Speed 38 mph    
Max Gust Speed 47 mph    
Visibility 8 miles    
Events Snow    
T = Trace of Precipitation, MM = Missing Value Source: NWS Daily Summary

Daily Weather History Graph

Daily Weather History Graph

Search for Another Location

Airport or City:

Trip Planner

Search our weather history database for the weather conditions in past years. The results will help you decide how hot, cold, wet, or windy it might be!

Date:

Astronomy

Dec. 17, 2012 Rise Set
Actual Time 9:50 AM AKST 4:22 PM AKST
Civil Twilight 8:59 AM AKST 5:13 PM AKST
Nautical Twilight 8:06 AM AKST 6:06 PM AKST
Astronomical Twilight 7:18 AM AKST 6:54 PM AKST
Moon 12:04 PM AKST (12/17) 11:02 PM AKST (12/17)
Length of Visible Light 8h 14m
Length of Day
6h 32m
Waxing Crescent, 26% of the Moon is Illuminated
Dec 17
Waxing Crescent
Dec 19
First Quarter
Dec 28
Full
Jan 4
Last Quarter
Jan 11
New

Hourly Weather History & Observations

Time (AKST) Temp. Windchill Dew Point Humidity Pressure Visibility Wind Dir Wind Speed Gust Speed Precip Events Conditions
12:53 AM 27.0 °F 15.6 °F -0.9 °F 30% 29.69 in 10.0 mi WNW 13.8 mph 27.6 mph N/A   Clear
1:53 AM 27.0 °F 13.2 °F 3.9 °F 37% 29.72 in 10.0 mi WSW 20.7 mph 28.8 mph N/A   Clear
3:53 AM 26.1 °F 15.0 °F 8.1 °F 47% 29.74 in 10.0 mi WNW 12.7 mph 24.2 mph N/A   Clear
4:53 AM 26.1 °F 13.1 °F 6.1 °F 43% 29.73 in 10.0 mi WNW 17.3 mph 24.2 mph N/A   Clear
5:53 AM 26.1 °F 13.6 °F 3.9 °F 39% 29.74 in 10.0 mi West 16.1 mph 27.6 mph N/A   Clear
6:53 AM 26.1 °F 17.6 °F 3.9 °F 39% 29.73 in 10.0 mi NW 8.1 mph - N/A   Clear
7:53 AM 27.0 °F - 1.0 °F 33% 29.74 in 10.0 mi Calm Calm - N/A   Clear
8:53 AM 23.0 °F 17.0 °F -0.0 °F 37% 29.75 in 10.0 mi West 4.6 mph - N/A   Clear
9:53 AM 19.0 °F 10.0 °F 1.9 °F 47% 29.75 in 10.0 mi West 6.9 mph - N/A   Clear
10:53 AM 21.9 °F 15.7 °F 3.9 °F 46% 29.75 in 8.0 mi SW 4.6 mph - N/A   Clear
11:53 AM 21.0 °F 14.6 °F 7.0 °F 55% 29.75 in 10.0 mi WNW 4.6 mph - N/A   Clear
12:53 PM 25.0 °F 17.1 °F 7.0 °F 46% 29.72 in 10.0 mi West 6.9 mph - N/A   Clear
3:53 PM 19.9 °F 12.1 °F 10.9 °F 68% 29.65 in 10.0 mi West 5.8 mph - N/A   Scattered Clouds
4:53 PM 17.1 °F 8.7 °F 10.0 °F 74% 29.62 in 10.0 mi West 5.8 mph - N/A   Mostly Cloudy
5:53 PM 18.0 °F 11.1 °F 10.9 °F 74% 29.56 in 10.0 mi West 4.6 mph - N/A   Mostly Cloudy
6:18 PM 19.4 °F 14.3 °F 10.4 °F 68% 29.54 in 7.0 mi West 3.5 mph - 0.00 in Snow Light Snow
6:38 PM 24.8 °F - 14.0 °F 64% 29.53 in 7.0 mi Calm Calm - 0.00 in Snow Light Snow
6:53 PM 23.0 °F - 16.0 °F 74% 29.52 in 4.0 mi Calm Calm - 0.00 in Snow Light Snow
7:28 PM 21.2 °F - 15.8 °F 80% 29.47 in 9.0 mi Calm Calm - 0.00 in Snow Light Snow
7:53 PM 25.0 °F - 19.9 °F 81% 29.45 in 10.0 mi Calm Calm - 0.00 in   Overcast
8:04 PM 24.8 °F 20.5 °F 21.2 °F 86% 29.45 in 2.5 mi South 3.5 mph - 0.01 in Snow Light Snow
8:08 PM 26.6 °F 22.6 °F 21.2 °F 80% 29.44 in 4.0 mi South 3.5 mph - 0.01 in Snow Light Snow
8:36 PM 26.6 °F - 23.0 °F 86% 29.41 in 4.0 mi Calm Calm - 0.02 in Snow Light Snow
8:53 PM 27.0 °F 23.0 °F 25.0 °F 92% 29.40 in 4.0 mi East 3.5 mph - 0.02 in Snow Light Snow
9:29 PM 33.8 °F 23.9 °F 26.6 °F 75% 29.37 in 10.0 mi SE 15.0 mph 23.0 mph N/A   Overcast
9:53 PM 35.1 °F 25.2 °F 26.1 °F 70% 29.35 in 10.0 mi SE 16.1 mph - 0.00 in   Overcast
10:53 PM 35.1 °F 21.6 °F 28.9 °F 78% 29.29 in 6.0 mi ESE 31.1 mph 38.0 mph 0.00 in Snow Light Snow
11:07 PM 33.8 °F 20.3 °F 28.4 °F 81% 29.28 in 6.0 mi ESE 28.8 mph 33.4 mph 0.00 in Snow Light Snow
11:23 PM 33.8 °F 21.0 °F 30.2 °F 87% 29.26 in 2.0 mi ESE 25.3 mph 39.1 mph 0.00 in Snow Light Snow
11:51 PM 35.6 °F 21.9 °F 26.6 °F 70% 29.23 in 5.0 mi ESE 33.4 mph 43.7 mph 0.00 in Snow Light Snow
11:53 PM 35.1 °F 20.4 °F 26.1 °F 70% 29.23 in 4.0 mi ESE 38.0 mph 47.2 mph 0.00 in Snow Light Snow
11:58 PM 33.8 °F 18.8 °F 28.4 °F 81% 29.22 in 2.5 mi ESE 36.8 mph 47.2 mph 0.00 in Snow Light Snow